Temperature
22 22 22 22 21 21 20 20 19 19 19 18 18 18 17 17 17 17 17 17 17 17 17 17 17 17 17 17 17 17 17 17 18 18 18 18 17 17 17 17 17 17 17
22 22 22 22 21 21 20 20 19 19 19 18 18 17 17 17 16 16 17 17 17 17 17 17 16 16 17 17 17 17 17 17 17 18 17 17 17 17 17 17 17 17 17
21 22 22 22 21 21 20 20 19 19 19 18 18 17 17 16 16 16 16 16 16 16 16 16 16 16 16 16 17 17 17 17 17 17 17 17 17 17 17 17 17 17 17
21 21 21 21 21 21 21 20 20 19 19 18 18 18 17 17 16 16 16 16 16 16 16 16 16 16 16 16 16 17 17 17 17 17 17 16 16 17 17 17 17 17 17
21 21 21 21 21 21 21 20 20 20 19 19 18 18 17 17 16 16 16 16 16 16 16 16 16 16 16 16 16 16 17 17 17 17 17 16 16 16 17 17 17 17 17
21 21 21 20 20 20 20 20 20 20 19 19 18 18 17 17 17 16 16 16 16 16 16 16 16 16 16 16 16 16 16 16 16 16 16 16 16 16 16 17 17 16 16
21 21 20 20 20 20 20 20 19 19 19 19 19 18 17 16 16 16 16 16 16 16 16 16 16 16 16 16 16 16 16 16 16 16 16 16 16 16 16 17 17 17 16
21 20 20 20 20 20 20 19 19 19 19 18 18 18 17 16 16 16 16 16 16 16 16 16 16 16 16 16 16 16 16 16 16 16 16 16 16 16 16 16 17 17 16
20 20 19 19 19 19 19 18 18 18 18 18 18 18 17 17 16 16 16 16 16 16 16 16 16 16 16 16 16 16 16 16 16 16 16 16 16 16 16 16 16 16 16
20 19 19 19 19 18 18 18 17 17 17 17 17 17 17 17 17 16 16 16 16 16 16 16 16 16 15 16 16 16 16 16 16 16 16 16 16 16 16 16 16 16 16
20 19 19 19 18 18 17 17 16 16 16 16 16 16 16 16 16 16 15 15 15 16 16 16 16 16 16 16 16 16 16 16 16 16 16 15 16 16 16 16 16 16 16
20 19 18 18 18 18 17 17 16 15 15 15 15 15 15 15 15 14 14 14 14 15 15 16 16 16 16 16 16 16 16 16 16 15 15 15 15 15 16 16 16 16 16
19 19 18 17 17 17 17 16 16 16 15 15 15 15 15 14 14 14 14 14 14 14 15 16 17 17 17 16 16 15 15 15 15 15 15 15 15 15 15 15 16 16 15
19 18 17 16 16 16 16 16 16 16 15 15 15 15 15 14 14 14 14 14 14 14 14 14 15 16 16 16 15 15 15 15 15 15 15 15 15 15 15 15 15 15 15
18 17 16 16 15 15 15 15 15 15 15 15 15 15 14 14 14 14 14 13 13 13 13 13 13 14 15 15 15 15 15 15 15 15 15 15 15 15 15 15 15 15 15
18 17 16 16 15 15 15 15 15 15 15 15 14 14 14 14 14 14 13 13 13 13 13 13 13 13 14 14 15 15 15 15 15 15 14 14 14 15 15 15 15 15 15
16 16 16 15 15 14 14 14 15 15 15 15 14 14 14 14 13 13 13 13 13 13 12 12 12 13 13 14 14 14 14 14 15 14 14 14 14 14 14 15 15 15 15
15 15 15 14 14 14 14 14 14 14 14 14 14 14 14 13 13 13 12 12 12 12 12 12 12 12 13 13 14 14 14 14 14 14 14 14 14 14 14 14 14 14 14
13 13 13 13 13 13 13 13 13 13 13 13 13 13 13 13 13 12 12 12 12 12 12 12 12 12 12 13 13 13 13 13 14 14 14 14 13 13 13 14 14 14 14
12 12 12 12 12 12 12 12 12 13 13 13 13 13 12 12 12 12 12 12 12 12 12 12 12 12 12 12 12 12 13 13 13 13 13 13 13 13 13 13 13 13 13
10 11 11 12 12 12 12 12 12 12 12 12 12 12 12 12 11 11 11 11 11 11 11 11 11 11 11 11 12 12 12 12 12 13 13 13 13 13 13 12 12 13 13
8 8 8 9 10 10 10 11 11 11 11 11 11 12 12 11 11 11 11 11 11 11 11 11 10 10 10 11 11 11 11 12 12 12 12 12 12 12 12 12 12 12 12
7 7 7 7 7 8 8 9 9 10 10 10 11 11 11 11 10 10 10 10 10 10 10 10 10 10 10 10 10 10 10 11 11 11 11 11 11 11 11 11 11 11 11
7 6 6 6 6 7 7 7 8 8 9 9 10 10 11 10 10 9 9 9 10 10 9 9 9 9 9 9 9 9 10 10 10 10 10 10 10 10 10 10 10 10 10
7 6 6 6 6 6 6 6 7 7 8 8 9 10 10 10 10 9 9 9 9 9 9 9 9 9 9 9 9 9 9 9 10 10 10 10 10 10 10 9 9 9 9
6 6 6 6 5 5 5 5 5 6 7 7 8 9 9 10 9 9 9 8 8 8 8 8 8 8 8 8 8 8 8 8 8 9 9 9 9 9 9 9 9 9 9
Wind_Speed
7 11 16 13 11 10 8 6 5 4 3 3 2 2 2 2 2 2 2 2 2 2 2 2 2 2 2 2 1 2 3 4 5 6 7 8 8 7 6 5 5 3 7
10 14 15 13 11 10 8 7 5 4 3 2 1 1 0 1 1 2 3 4 4 4 4 4 4 4 4 3 2 2 2 3 3 3 4 6 8 7 6 6 7 7 5
10 14 13 12 11 9 8 7 6 5 4 2 2 2 1 1 3 3 4 5 5 5 5 5 5 4 5 5 4 4 4 3 2 3 4 5 9 8 7 6 6 7 6
7 13 14 14 11 9 8 8 7 6 5 4 3 3 3 2 2 3 3 4 5 5 5 5 4 4 5 5 5 6 6 5 4 5 7 7 10 10 8 7 7 7 7
8 11 16 17 12 10 9 9 8 7 6 5 5 4 4 2 2 3 3 2 2 3 3 2 3 4 4 5 6 7 7 6 5 8 10 1 13 11 9 7 6 6 7
8 13 17 17 13 11 10 9 9 8 8 7 7 6 5 4 2 2 3 2 1 1 2 2 3 4 5 5 6 8 8 8 7 9 12 2 12 11 9 7 6 6 6
5 12 16 15 13 11 10 10 9 9 9 9 8 6 6 6 4 2 2 0 1 1 1 2 3 5 6 6 7 8 8 8 9 10 10 3 13 11 8 6 5 4 4
6 7 14 15 13 11 10 10 9 9 9 9 9 7 5 5 5 5 4 3 2 2 1 1 2 4 6 7 8 8 8 9 9 11 10 7 15 12 8 5 3 3 3
7 3 5 11 13 13 12 12 11 10 10 9 9 8 6 4 4 5 3 4 4 4 3 1 2 4 6 7 8 9 10 11 9 9 9 8 15 12 9 5 3 2 3
4 3 4 2 10 13 14 15 14 11 10 9 9 9 7 5 6 7 7 8 8 6 4 2 1 3 5 7 9 10 12 11 10 11 9 10 16 13 10 7 4 3 3
6 3 3 6 5 1 6 14 14 12 11 10 9 11 9 8 10 13 16 13 10 8 6 6 6 6 6 8 11 12 12 10 11 11 7 14 15 13 11 9 6 4 4
6 7 6 7 7 6 5 5 7 9 11 11 11 13 12 11 11 5 9 11 10 9 10 12 13 11 10 9 13 15 10 13 12 9 8 17 15 13 11 10 8 6 4
9 9 7 6 6 6 3 2 1 2 3 8 11 8 10 9 6 4 5 8 10 11 10 12 13 11 10 10 8 11 12 12 11 9 11 18 16 13 12 11 10 8 6
9 9 7 6 5 6 5 2 0 1 1 1 2 3 3 2 3 2 2 3 4 5 6 6 4 8 10 12 10 9 11 9 8 8 12 17 16 14 13 13 11 10 8
7 8 7 4 5 6 4 3 2 3 2 2 0 2 3 1 3 3 2 2 2 4 2 4 5 7 8 9 6 8 9 7 8 9 11 17 16 15 14 14 13 12 11
8 8 7 8 8 6 5 5 4 3 2 3 2 2 5 2 2 2 2 3 3 3 4 3 6 6 7 6 7 7 6 5 6 8 11 14 16 16 15 15 14 13 12
11 10 9 8 9 9 7 6 5 3 4 3 3 5 6 4 3 3 3 4 4 5 5 4 6 6 6 4 4 4 4 5 4 6 10 12 13 15 16 16 14 14 13
15 13 11 8 7 9 8 6 6 4 4 3 4 4 7 8 4 3 3 4 5 4 3 4 5 5 5 4 3 3 3 4 6 5 6 10 12 13 15 17 15 14 13
20 18 16 13 9 8 8 6 6 5 5 3 4 4 5 6 6 2 3 4 4 4 3 4 4 4 4 5 4 4 4 5 6 7 6 7 9 12 13 17 17 15 13
20 20 19 17 15 13 8 6 5 6 5 4 4 4 6 5 6 3 4 5 4 3 3 4 5 3 3 3 4 4 4 5 5 5 6 5 6 9 11 11 13 13 14
17 18 18 17 17 14 11 9 7 6 6 6 5 5 5 5 6 4 3 4 3 2 3 3 2 2 1 1 1 3 4 5 6 5 4 2 3 5 7 7 8 8 10
13 14 15 15 15 14 12 11 9 8 6 5 5 5 5 6 6 4 3 3 4 1 2 3 2 1 1 0 1 1 2 3 3 4 3 3 2 2 3 4 4 5 6
11 11 13 12 13 14 15 12 11 9 7 5 6 6 6 6 6 4 3 3 4 1 1 1 2 1 1 2 2 1 1 1 1 1 1 1 2 2 2 3 3 4 4
9 8 9 11 12 13 14 15 17 13 11 9 7 7 8 8 7 5 4 4 4 2 2 2 2 1 1 1 1 2 2 2 2 1 1 2 4 4 4 3 2 2 3
8 8 8 10 11 12 15 16 17 15 13 10 9 8 6 5 6 5 4 3 4 2 2 1 1 1 1 0 0 1 2 3 2 2 1 1 2 2 3 3 2 1 3
9 9 10 10 10 11 14 16 17 19 18 15 12 9 6 4 5 6 4 2 3 3 2 1 1 1 1 0 1 1 2 2 0 1 1 0 1 1 2 3 1 0 3
Wind_Direction
129 130 155 162 166 169 173 177 178 166 151 142 126 137 154 157 156 144 142 161 185 201 224 243 251 262 274 276 252 109 101 91 84 81 87 93 92 88 81 61 21 78 97
121 130 154 163 170 175 180 186 188 176 165 161 163 153 196 228 239 237 224 218 217 220 231 247 255 256 257 252 235 181 150 120 112 120 128 125 112 100 84 63 48 55 65
106 126 152 164 173 178 183 189 192 190 189 195 224 251 278 278 262 274 254 240 231 230 236 248 261 261 252 242 227 206 188 166 176 231 232 195 137 113 95 76 63 56 51
108 136 154 162 173 181 187 193 197 201 206 217 239 251 256 292 301 302 302 259 236 232 242 254 263 262 255 240 224 212 202 190 210 259 264 229 148 117 103 85 71 65 58
125 113 139 155 168 181 192 198 202 208 212 224 245 257 244 261 314 333 342 320 233 221 232 254 258 253 253 241 227 218 212 203 217 261 277 239 124 123 109 94 78 72 68
141 123 138 153 165 182 194 201 206 214 217 226 239 253 249 241 270 340 5 18 76 139 193 233 245 247 247 240 232 227 224 215 219 256 270 218 124 123 116 108 97 84 76
67 115 139 153 167 184 196 204 209 216 222 231 236 253 250 227 233 269 318 301 120 120 187 243 249 245 242 235 231 230 227 223 229 266 275 137 125 126 121 120 112 102 94
67 102 141 158 170 185 200 210 216 221 226 233 235 245 252 235 233 241 250 221 187 162 128 296 267 257 246 238 230 226 219 220 233 252 262 149 138 133 130 131 122 113 116
52 58 133 163 176 188 198 207 213 220 229 237 236 239 249 259 252 240 226 202 185 163 137 73 327 284 257 241 229 220 214 219 247 274 276 152 145 141 144 152 145 128 126
55 34 7 220 180 183 196 203 202 208 221 237 241 238 237 234 240 235 220 205 189 172 166 180 282 310 286 252 232 219 216 215 231 257 265 152 149 150 159 171 163 146 141
171 143 86 354 15 15 196 183 192 202 215 228 237 234 228 234 242 231 224 210 190 193 207 224 236 251 275 259 233 220 213 214 227 237 233 154 153 158 169 179 170 157 153
124 74 42 26 16 358 13 123 188 198 203 209 225 217 210 224 240 248 168 176 194 218 230 236 240 241 241 243 231 215 206 214 233 231 172 157 159 165 176 186 178 171 168
79 71 46 37 14 2 360 42 351 316 233 208 224 214 194 214 229 226 173 184 209 223 231 241 234 232 228 225 223 198 206 212 216 217 171 165 165 172 185 193 188 182 179
80 76 48 22 35 20 2 17 333 269 262 253 236 237 208 204 222 237 219 226 221 215 209 226 212 219 221 226 217 191 201 208 194 192 173 171 169 177 191 198 197 193 189
68 89 77 25 21 31 7 336 304 293 332 330 3 339 297 240 229 227 224 248 272 288 263 219 237 245 241 231 217 199 200 189 184 186 168 175 173 181 195 202 202 201 197
29 60 60 35 24 14 342 342 347 356 351 315 334 293 276 258 263 243 237 259 251 259 282 287 272 258 252 237 223 207 189 171 187 184 166 179 180 185 196 203 203 203 200
14 27 36 37 14 346 344 2 345 317 311 343 337 320 304 265 226 230 235 252 246 236 239 253 271 285 287 270 224 195 175 186 198 200 175 173 184 193 198 203 205 203 200
11 11 14 16 6 341 341 353 340 330 338 343 325 319 313 306 275 223 235 256 258 247 238 251 252 272 283 284 267 236 215 213 217 219 192 176 175 187 201 204 204 204 203
14 8 3 359 354 337 330 325 305 296 317 315 307 302 297 307 313 291 251 251 262 261 254 265 263 248 261 272 260 242 231 223 227 230 216 193 185 180 185 203 206 205 208
17 11 4 357 351 343 331 326 324 318 306 294 295 300 298 298 296 285 274 265 265 282 283 280 281 277 253 265 273 262 238 229 230 236 237 224 200 189 179 180 195 209 212
19 11 3 358 352 348 340 332 320 310 307 300 281 271 291 290 285 275 285 306 300 300 298 296 305 335 319 344 313 288 264 237 228 228 227 243 222 189 172 165 174 181 195
19 9 358 354 348 344 336 326 310 295 280 279 299 304 298 290 280 270 261 280 283 274 325 332 4 2 313 185 183 294 304 301 254 211 193 205 216 171 162 155 166 155 146
15 5 353 345 345 346 340 330 320 311 300 284 272 261 253 258 268 258 262 281 291 283 285 312 13 356 270 256 189 136 100 294 314 16 129 112 103 107 112 115 106 124 140
360 351 341 340 346 349 346 339 330 316 302 288 272 248 226 224 243 243 232 254 274 270 248 241 231 157 75 333 345 92 99 86 56 50 23 104 106 93 94 95 74 93 118
339 336 334 341 349 349 346 341 332 320 306 296 292 280 247 220 223 222 210 250 263 256 257 262 97 87 92 212 319 75 53 55 49 91 135 96 85 119 124 112 103 51 105
331 334 335 340 346 347 345 340 331 322 313 302 291 286 274 246 222 204 189 219 263 255 239 199 155 182 216 251 76 74 108 116 130 127 129 173 183 218 130 107 86 209 133
Height
1498 1498 1498 1498 1499 1499 1500 1501 1502 1503 1504 1505 1507 1508 1509 1510 1512 1513 1515 1516 1517 1518 1519 1520 1521 1522 1523 1523 1524 1525 1525 1526 1527 1528 1528 1529 1530 1530 1531 1532 1532 1533 1534
1499 1498 1499 1499 1499 1500 1500 1501 1502 1503 1504 1505 1506 1507 1508 1510 1511 1513 1514 1515 1516 1518 1519 1520 1520 1521 1522 1523 1524 1524 1525 1526 1527 1528 1529 1529 1530 1531 1531 1532 1533 1533 1534
1499 1499 1500 1500 1500 1500 1500 1501 1502 1503 1504 1505 1506 1507 1508 1509 1510 1512 1513 1514 1515 1516 1518 1519 1519 1520 1521 1522 1523 1524 1525 1526 1527 1528 1529 1529 1530 1531 1532 1532 1533 1533 1534
1500 1499 1500 1500 1500 1500 1500 1501 1502 1502 1503 1504 1505 1506 1507 1508 1510 1511 1512 1513 1514 1515 1516 1517 1518 1519 1520 1521 1522 1523 1524 1526 1527 1528 1529 1530 1530 1531 1531 1532 1532 1533 1534
1500 1500 1500 1500 1500 1500 1501 1501 1501 1502 1503 1503 1504 1505 1506 1507 1508 1509 1510 1512 1513 1514 1515 1516 1517 1518 1519 1520 1521 1522 1523 1525 1527 1528 1529 1530 1530 1531 1531 1532 1532 1532 1533
1500 1498 1499 1500 1500 1500 1500 1501 1501 1501 1502 1502 1503 1504 1504 1505 1507 1508 1509 1510 1511 1512 1513 1514 1516 1517 1518 1519 1520 1521 1522 1524 1526 1527 1528 1530 1530 1530 1531 1531 1531 1532 1533
1501 1498 1498 1499 1500 1500 1500 1499 1500 1500 1500 1501 1501 1502 1503 1504 1505 1506 1507 1508 1509 1510 1511 1513 1514 1515 1516 1517 1518 1519 1521 1522 1524 1525 1527 1528 1528 1529 1530 1530 1531 1531 1532
1499 1498 1497 1498 1498 1498 1498 1498 1498 1498 1499 1499 1499 1500 1501 1502 1502 1503 1504 1505 1507 1508 1509 1511 1512 1513 1514 1515 1516 1517 1519 1520 1522 1524 1525 1527 1527 1528 1529 1529 1530 1530 1530
1497 1497 1497 1497 1497 1497 1497 1497 1496 1497 1497 1497 1497 1498 1499 1499 1500 1501 1502 1503 1504 1505 1506 1508 1509 1510 1511 1512 1513 1515 1516 1518 1519 1521 1523 1525 1525 1526 1527 1528 1528 1529 1529
1495 1496 1496 1497 1495 1494 1494 1494 1495 1495 1495 1496 1496 1496 1497 1497 1498 1499 1500 1501 1502 1502 1503 1505 1506 1507 1508 1509 1510 1512 1513 1515 1517 1519 1520 1522 1523 1524 1525 1526 1526 1527 1527
1494 1494 1495 1495 1495 1495 1494 1493 1493 1493 1494 1494 1495 1495 1495 1496 1496 1497 1498 1498 1499 1500 1501 1501 1503 1504 1505 1506 1507 1509 1510 1512 1514 1516 1518 1519 1520 1521 1522 1523 1524 1525 1526
1494 1493 1494 1494 1493 1493 1494 1493 1492 1492 1492 1493 1493 1493 1494 1494 1495 1496 1496 1496 1497 1497 1497 1498 1499 1500 1501 1502 1504 1505 1506 1508 1511 1512 1514 1516 1517 1519 1520 1521 1522 1523 1523
1493 1493 1494 1493 1493 1492 1493 1493 1493 1492 1492 1492 1492 1493 1493 1493 1494 1495 1495 1495 1495 1495 1494 1494 1495 1496 1497 1498 1500 1501 1502 1504 1506 1508 1510 1512 1513 1515 1517 1518 1519 1520 1521
1493 1494 1494 1494 1493 1492 1492 1492 1492 1492 1492 1492 1492 1493 1493 1493 1492 1492 1493 1493 1493 1492 1491 1491 1491 1492 1493 1495 1496 1497 1499 1500 1502 1504 1506 1507 1509 1511 1513 1514 1515 1517 1518
1495 1494 1494 1494 1494 1493 1493 1493 1492 1492 1492 1492 1492 1491 1492 1491 1491 1491 1490 1490 1490 1490 1490 1490 1489 1490 1490 1492 1494 1495 1496 1497 1498 1500 1501 1503 1505 1507 1509 1510 1512 1513 1515
1496 1495 1495 1495 1495 1494 1494 1494 1493 1493 1492 1491 1491 1490 1490 1489 1489 1488 1488 1487 1487 1488 1488 1487 1487 1487 1488 1489 1490 1491 1492 1493 1494 1495 1496 1498 1500 1503 1504 1506 1508 1509 1511
1496 1495 1495 1494 1494 1494 1494 1493 1492 1492 1492 1490 1489 1488 1487 1487 1486 1485 1485 1484 1485 1485 1485 1484 1484 1484 1484 1485 1485 1486 1487 1488 1489 1491 1492 1494 1496 1498 1500 1502 1504 1505 1507
1496 1496 1495 1495 1494 1493 1493 1492 1491 1490 1489 1488 1487 1486 1484 1483 1483 1482 1481 1481 1481 1482 1481 1481 1480 1479 1479 1480 1480 1481 1482 1483 1485 1486 1488 1489 1491 1493 1495 1497 1499 1501 1503
1497 1496 1495 1494 1494 1492 1491 1490 1489 1488 1487 1486 1484 1483 1481 1480 1479 1478 1477 1477 1477 1477 1477 1477 1476 1475 1475 1475 1475 1476 1477 1478 1480 1482 1483 1484 1486 1488 1491 1493 1495 1497 1498
1499 1498 1496 1494 1492 1490 1489 1488 1486 1485 1484 1482 1481 1479 1478 1476 1475 1474 1473 1473 1473 1473 1473 1473 1472 1471 1470 1470 1470 1471 1472 1474 1475 1477 1478 1480 1482 1484 1486 1488 1490 1492 1494
1500 1498 1496 1494 1491 1488 1486 1484 1482 1481 1480 1478 1477 1475 1474 1473 1471 1470 1469 1469 1469 1469 1469 1468 1467 1467 1466 1466 1467 1467 1468 1469 1470 1472 1474 1475 1477 1478 1481 1483 1485 1487 1489
1502 1499 1496 1493 1489 1486 1483 1480 1478 1476 1474 1473 1472 1471 1469 1468 1467 1466 1465 1465 1465 1465 1464 1464 1464 1463 1463 1463 1464 1464 1464 1465 1465 1467 1469 1471 1472 1474 1476 1478 1480 1482 1484
1503 1499 1496 1493 1488 1483 1479 1476 1473 1470 1468 1467 1466 1464 1463 1462 1462 1462 1461 1460 1461 1461 1460 1460 1460 1460 1460 1461 1461 1462 1462 1462 1462 1463 1465 1466 1468 1470 1472 1474 1476 1478 1480
1504 1499 1495 1490 1484 1479 1475 1472 1468 1466 1464 1462 1461 1459 1457 1456 1456 1457 1456 1456 1456 1456 1456 1457 1457 1457 1457 1458 1458 1459 1460 1460 1461 1462 1463 1464 1466 1468 1470 1472 1474 1475 1477
1502 1496 1491 1485 1480 1476 1472 1469 1465 1461 1459 1456 1455 1454 1452 1451 1451 1451 1451 1451 1452 1452 1452 1453 1453 1453 1454 1455 1456 1456 1456 1457 1459 1460 1461 1463 1464 1466 1468 1470 1471 1473 1474
1498 1492 1487 1482 1478 1474 1470 1466 1462 1457 1453 1450 1449 1448 1447 1446 1446 1446 1446 1446 1447 1448 1448 1448 1449 1450 1450 1451 1452 1453 1454 1455 1456 1457 1459 1460 1462 1464 1466 1467 1469 1470 1471